Volver al catálogo

OPS 4682 DEB

ActivoPO
NORAD 51486·DEBRIS·🇺🇸 United States

Lanzado Apr 3, 1965 desde Vandenberg Space Force Base

Loading…

Próximos Pases (próximas 24 horas)

TLE

ActualizadoSource: Space-Track

Época: Sep 14, 2026, 01:48 UTC

1 51486U 65027FW  26257.07551303  .00000358  00000-0  12495-2 0  9999
2 51486  90.2499  10.6336 0027452 348.7220  11.3280 12.95099384532717

Sigue OPS 4682 DEB en tiempo real con AllMySat

Download on the App Store